User: anonymous   Login
Location: Hale Hill Observatory
(39.3806°N, 86.8431°W)
Time: 20:15:46
(UTC-05:00)
Language:

Cosmos 990 Rocket - Orbit

View from above orbital plane
View from above orbital plane
View from above satellite
View from above satellite

Ground track
Ground track

The orbit data is extracted from the following two-line orbital elements,

1 10677U 78019B   16037.78837502  .00000117  00000-0  45626-4 0  9999
2 10677  74.0386 138.4952 0015924 330.9029  29.1237 14.39942305991047
Epoch (UTC): 06 February 2016 18:55:15
Eccentricity: 0.0015924
inclination: 74.0386°
perigee height: 747 km
apogee height: 770 km
right ascension of ascending node: 138.4952°
argument of perigee: 330.9029°
revolutions per day: 14.39942305
mean anomaly at epoch: 29.1237°
orbit number at epoch: 99104

The dashed part of the orbit path shows where the satellite is in the earth's shadow,  

DLR